DW6654 Weather Reports


time (UTC)temp
C
wind
direction
speed
KPH
gust
KPH
rain 1hr
cm
rain 24hr
cm
rain mn
cm
humidity
%
barometer
mb
20260504184504 20 134 14.5 29.0 0.00 0.00 0.00 33 1007.1
20260504183002 20 269 11.3 24.1 0.00 0.00 0.00 33 1007.2
20260504181604 19 164 9.7 24.1 0.00 0.00 0.00 33 1007.2
20260504180058 18 175 9.7 22.5 0.00 0.00 0.00 34 1007.4
20260504174558 18 163 9.7 24.1 0.00 0.00 0.00 34 1007.5
20260504173055 18 228 11.3 32.2 0.00 0.00 0.00 33 1007.3
20260504171552 18 282 11.3 38.6 0.00 0.00 0.00 34 1007.3
20260504120130 10 180 6.4 16.1 0.00 0.00 0.00 54 1010.3
20260504081539 7 128 4.8 14.5 0.00 0.00 0.00 58 1010.1
20260504050008 2 162 0.0 3.2 0.00 0.00 0.00 80 1010.4
20260504044510 0 161 0.0 6.4 0.00 0.00 0.00 91 1010.4
20260504043115 0 154 0.0 4.8 0.00 0.00 0.00 90 1010.4
20260504041557 0 211 0.0 1.6 0.00 0.00 0.00 90 1010.3
20260504040054 0 211 0.0 0.0 0.00 0.00 0.00 88 1010.1
20260504034554 0 211 0.0 0.0 0.00 0.00 0.00 88 1010.1
20260504033101 0 211 0.0 0.0 0.00 0.00 0.00 88 1010.1
20260504031555 0 211 0.0 0.0 0.00 0.00 0.00 87 1010.1
20260504024546 0 211 0.0 0.0 0.00 0.00 0.00 86 1010.1
20260504023044 1 211 0.0 1.6 0.00 0.00 0.00 84 1010.1
20260504021547 1 211 0.0 0.0 0.00 0.00 0.00 83 1010.2
20260504020040 1 211 0.0 0.0 0.00 0.00 0.00 81 1010.1
20260504014540 2 211 0.0 0.0 0.00 0.00 0.00 80 1010.0
20260504013036 2 211 0.0 0.0 0.00 0.00 0.00 76 1009.8
20260504011533 3 211 0.0 0.0 0.00 0.00 0.00 73 1009.7
20260504010032 4 211 0.0 0.0 0.00 0.00 0.00 71 1009.4
20260504004540 5 211 0.0 0.0 0.00 0.00 0.00 67 1009.2
20260504003029 6 211 0.0 1.6 0.00 0.00 0.00 59 1008.9
20260504001535 6 210 0.0 4.8 0.00 0.00 0.00 53 1008.8
20260504000028 7 250 0.0 4.8 0.00 0.00 0.00 49 1008.6
20260503234534 8 204 0.0 9.7 0.00 0.00 0.00 45 1008.4
20260503233027 8 277 6.4 16.1 0.00 0.00 0.00 46 1008.3
20260503231527 8 134 1.6 6.4 0.00 0.00 0.00 46 1008.2
20260503230027 8 242 0.0 6.4 0.00 0.10 0.00 46 1008.2
20260503224526 8 240 3.2 17.7 0.00 0.10 0.00 46 1008.1
20260503223026 8 233 0.0 8.0 0.00 0.10 0.00 48 1008.0
20260503221531 8 289 3.2 19.3 0.00 0.10 0.00 45 1007.9
20260503220032 8 263 4.8 22.5 0.00 0.10 0.00 43 1007.8
20260503214533 8 175 3.2 20.9 0.00 0.10 0.00 44 1007.7
20260503213032 8 259 6.4 22.5 0.00 0.10 0.00 42 1007.7
20260503211522 9 242 11.3 25.7 0.00 0.10 0.00 40 1007.5
20260503210022 9 323 9.7 32.2 0.00 0.15 0.00 42 1007.2
20260503204527 9 269 11.3 25.7 0.00 0.15 0.00 40 1007.1
20260503203022 10 253 9.7 22.5 0.00 0.15 0.00 42 1007.1
20260503201520 9 180 4.8 24.1 0.00 0.15 0.00 43 1007.1
20260503200019 9 315 6.4 17.7 0.00 0.18 0.00 43 1007.1
20260503194521 9 232 11.3 29.0 0.00 0.18 0.00 41 1007.0
20260503193018 9 244 9.7 25.7 0.00 0.18 0.00 42 1007.0
20260503191520 10 284 6.4 22.5 0.00 0.18 0.00 41 1006.7
20260503190017 9 190 9.7 20.9 0.00 0.20 0.00 42 1006.8